Weather History for CWLS - November, 2012

Change the Weather History Date:

Monday, November 5, 2012

  Actual Average Record
Temperature  
Mean Temperature 30 °F -  
Max Temperature 33 °F - - ()
Min Temperature 27 °F - - ()
Degree Days  
Heating Degree Days 35    
Moisture  
Dew Point 21 °F    
Average Humidity 69    
Maximum Humidity 84    
Minimum Humidity 53    
Precipitation  
Precipitation 0.00 in - - ()
Sea Level Pressure  
Sea Level Pressure 30.19 in    
Wind  
Wind Speed 5 mph ()    
Max Wind Speed 8 mph    
Max Gust Speed -    
T = Trace of Precipitation, MM = Missing Value Source: Averaged Metar Reports

Daily Weather History Graph

Daily Weather History Graph

Search for Another Location

Airport or City:

Trip Planner

Search our weather history database for the weather conditions in past years. The results will help you decide how hot, cold, wet, or windy it might be!

Date:

Astronomy

Nov. 05, 2012 Rise Set
Actual Time 7:05 AM EST 5:07 PM EST
Civil Twilight 6:34 AM EST 5:37 PM EST
Nautical Twilight 6:00 AM EST 6:11 PM EST
Astronomical Twilight 5:26 AM EST 6:45 PM EST
Moon 10:43 PM EST (11/5) 12:24 PM EST (11/5)
Length of Visible Light 11h 02m
Length of Day
10h 01m
Waning Gibbous, 63% of the Moon is Illuminated
Nov 5
Waning Gibbous
Nov 6
Last Quarter
Nov 13
New
Nov 20
First Quarter
Nov 28
Full

Hourly Weather History & Observations

Time (EST) Temp. Windchill Dew Point Humidity Pressure Visibility Wind Dir Wind Speed Gust Speed Precip Events Conditions
12:00 AM 30.0 °F 24.1 °F 25.7 °F 84% 30.14 in - North 5.8 mph - N/A   Unknown
1:00 AM 30 °F - 24 °F 69% 30.15 in - North 8.1 mph - -  
1:00 AM 30.0 °F 22.4 °F 23.7 °F 77% 30.15 in - North 8.1 mph - N/A   Unknown
2:00 AM 29.8 °F 23.0 °F 22.1 °F 73% 30.15 in - North 6.9 mph - N/A   Unknown
3:00 AM 29.7 °F 23.7 °F 23.2 °F 77% 30.15 in - NNW 5.8 mph - N/A   Unknown
4:00 AM 30 °F - 23 °F 64% 30.16 in - North 8.1 mph - -  
4:00 AM 29.7 °F 22.0 °F 22.6 °F 75% 30.16 in - North 8.1 mph - N/A   Unknown
5:00 AM 29.3 °F 21.5 °F 22.6 °F 76% 30.17 in - North 8.1 mph - N/A   Unknown
6:00 AM 28.9 °F 21.9 °F 23.7 °F 81% 30.18 in - North 6.9 mph - N/A   Unknown
7:00 AM 29 °F - 24 °F 74% 30.18 in - North 5.8 mph - -  
7:00 AM 28.8 °F 22.6 °F 23.9 °F 82% 30.18 in - North 5.8 mph - N/A   Unknown
8:00 AM 28.9 °F 21.1 °F 23.7 °F 81% 30.20 in - North 8.1 mph - N/A   Unknown
9:00 AM 29.3 °F 22.3 °F 21.0 °F 71% 30.21 in - North 6.9 mph - N/A   Unknown
10:00 AM 29 °F - 20 °F 60% 30.21 in - NE 5.8 mph - -  
10:00 AM 29.5 °F 23.4 °F 20.5 °F 69% 30.21 in - NE 5.8 mph - N/A   Unknown
11:00 AM 30.6 °F 24.7 °F 18.7 °F 61% 30.22 in - NE 5.8 mph - N/A   Unknown
12:00 PM 30.9 °F 24.3 °F 19.9 °F 64% 30.21 in - NNE 6.9 mph - N/A   Unknown
1:00 PM 30 °F - 21 °F 57% 30.20 in - North 6.9 mph - -  
1:00 PM 30.2 °F 23.4 °F 20.7 °F 68% 30.20 in - North 6.9 mph - N/A   Unknown
2:00 PM 30.0 °F 25.2 °F 19.6 °F 65% 30.20 in - NNW 4.6 mph - N/A   Unknown
3:00 PM 30.4 °F 26.9 °F 19.9 °F 65% 30.19 in - NNE 3.5 mph - N/A   Unknown
4:00 PM 30 °F - 20 °F 53% 30.20 in - NNE 3.5 mph - -  
4:00 PM 29.8 °F 26.3 °F 19.6 °F 66% 30.20 in - NNE 3.5 mph - N/A   Unknown
6:00 PM 28.9 °F 25.2 °F 19.4 °F 68% 30.21 in - NE 3.5 mph - N/A   Unknown
7:00 PM 28 °F - 19 °F 57% 30.22 in - NNE 3.5 mph - -  
7:00 PM 28.4 °F 24.6 °F 18.9 °F 67% 30.22 in - NNE 3.5 mph - N/A   Unknown
8:00 PM 28.2 °F 23.1 °F 18.9 °F 68% 30.21 in - North 4.6 mph - N/A   Unknown
9:00 PM 27.9 °F - 18.9 °F 69% 30.22 in - East 2.3 mph - N/A   Unknown
10:00 PM 28 °F - 19 °F 57% 30.22 in - ENE 3.5 mph - -  
10:00 PM 27.5 °F 23.6 °F 18.7 °F 69% 30.22 in - ENE 3.5 mph - N/A   Unknown
11:00 PM 27.3 °F - 18.5 °F 69% 30.21 in - SSE 1.2 mph - N/A   Unknown